Temp
18 18 17 17 17 18 18 19 20 20 20 20 20 21 21 20 22 22 23 23 23 24 24 23 23 22 21 21 20 19 18 18 18 17 17 19 20 20 19 19 19 18 17 16 16 16 17 17 17 18 18 18 18 18 18 17 18 18 17 17 18 18 18 18 18 18 18 18 18 18 18 18 18 18 18 19 19 18 18 18 18 18 18 18 18 18
18 17 16 17 18 18 18 19 20 19 19 20 20 21 20 20 21 22 22 22 22 24 23 21 22 20 20 21 20 18 18 18 18 18 18 17 18 20 19 19 19 18 17 16 16 16 16 16 17 17 17 17 18 18 18 18 18 18 18 18 18 19 18 18 18 18 18 18 18 18 18 18 19 19 18 18 18 18 18 18 18 18 18 18 17 17
17 16 17 17 18 18 18 18 19 19 19 20 20 20 20 20 21 21 22 22 22 24 23 21 22 21 20 21 20 18 19 19 18 18 18 17 17 19 19 19 18 17 17 17 16 16 16 16 16 17 17 17 17 18 18 18 18 18 18 18 19 19 19 18 18 18 18 18 18 18 18 18 18 18 18 18 18 18 18 18 18 17 17 17 17 17
16 16 17 17 17 18 18 17 18 19 19 19 19 20 20 20 20 21 21 22 22 22 22 22 22 21 20 20 19 19 19 19 18 18 18 18 17 18 18 18 18 18 17 17 17 16 16 16 16 16 17 17 17 17 18 18 18 18 18 18 19 19 19 19 19 19 19 18 18 18 18 18 18 18 18 18 18 17 18 18 17 17 17 17 17 17
17 17 17 17 18 19 19 17 17 18 18 18 19 20 20 20 20 21 21 22 22 21 21 22 21 21 20 20 19 18 19 19 17 18 18 17 16 16 17 18 18 18 17 17 17 16 16 16 16 16 17 17 17 17 17 18 18 18 18 19 19 19 19 19 19 19 18 18 18 18 18 18 18 18 18 18 18 18 18 18 18 18 17 17 17 17
17 17 17 17 18 18 19 18 17 18 19 18 19 20 20 21 21 21 21 22 22 21 21 21 21 21 20 20 20 18 19 18 17 18 18 16 16 17 17 17 17 17 17 17 17 16 16 16 15 16 16 16 17 17 17 17 18 18 18 19 19 19 19 19 18 18 18 18 18 18 18 18 18 18 18 17 17 17 18 18 18 18 17 17 17 17
18 17 17 18 17 18 19 18 17 18 19 19 19 19 20 21 21 21 21 21 21 21 21 20 21 21 20 20 20 19 19 18 17 18 18 16 17 17 16 17 17 17 17 17 17 16 16 16 15 15 15 16 16 16 17 17 18 18 18 19 18 18 18 18 18 18 18 18 18 18 18 18 18 18 17 17 17 17 17 17 18 17 17 17 17 17
17 17 17 17 17 17 18 18 17 18 19 19 19 19 20 20 21 21 21 21 20 20 20 20 21 21 20 20 19 18 18 18 17 18 18 17 17 17 17 16 16 17 17 17 17 17 16 16 15 15 15 15 15 16 17 17 17 18 18 18 18 18 18 18 18 18 18 18 18 18 18 18 17 17 17 17 17 17 17 17 17 17 17 17 17 17
17 17 17 17 17 17 17 18 18 18 20 20 18 19 21 21 21 21 21 20 20 20 20 20 20 20 20 19 18 19 19 18 18 18 17 17 17 17 17 16 16 17 17 17 17 16 16 16 15 15 15 15 15 15 16 17 17 17 17 18 18 18 18 18 18 18 18 18 18 18 18 17 17 17 17 17 17 17 17 17 17 17 17 17 17 17
18 18 18 18 17 17 18 19 18 19 21 20 18 19 20 20 20 20 20 20 20 20 20 20 20 20 20 18 17 19 19 18 18 18 18 18 18 18 17 17 17 17 17 17 17 16 16 16 15 15 15 15 15 15 16 16 17 17 17 17 18 18 18 18 18 18 18 18 18 18 17 17 17 17 17 17 17 17 17 17 17 16 16 17 17 17
18 18 18 18 18 18 19 18 18 20 21 20 19 21 21 20 20 20 19 20 20 20 20 20 20 21 20 19 18 19 20 20 19 18 18 19 18 18 18 18 18 17 17 17 17 16 16 15 15 15 15 15 15 15 16 16 16 17 17 18 18 17 17 18 18 18 18 17 17 17 17 17 17 17 17 17 16 16 16 16 16 16 16 16 16 16
18 18 18 18 19 19 19 18 18 19 20 20 20 21 21 20 20 20 19 20 19 20 20 19 19 20 20 20 19 19 21 21 20 19 19 19 19 19 18 18 18 18 18 17 17 16 15 15 15 15 15 15 15 15 15 16 16 17 17 18 17 17 17 17 17 18 17 17 17 17 17 17 16 16 16 16 16 16 16 15 15 15 15 15 14 14
17 18 18 19 20 20 19 18 18 18 19 20 20 20 20 19 19 19 19 19 19 20 19 17 18 20 20 20 19 19 21 21 21 20 20 20 19 19 18 18 18 18 17 17 16 16 15 15 15 15 14 15 15 15 16 16 16 16 17 17 17 16 17 17 17 17 17 17 17 17 17 16 16 15 15 15 15 15 15 14 14 14 13 13 13 13
16 18 18 19 19 20 20 18 18 18 18 19 20 19 19 18 18 18 18 17 18 20 18 17 19 20 20 20 18 18 20 20 21 21 20 20 19 19 18 18 18 17 17 17 16 15 15 15 15 15 14 14 15 15 16 16 16 16 16 16 16 16 16 16 16 16 17 17 16 16 16 15 15 15 15 14 14 14 14 13 13 13 13 13 13 13
16 16 17 18 19 19 20 19 19 18 17 18 19 20 19 19 19 19 19 19 20 20 18 18 20 20 20 19 17 16 17 18 20 20 19 19 18 18 18 18 18 17 17 16 16 15 15 15 15 15 14 14 14 15 16 16 16 16 16 16 16 16 16 16 16 16 17 16 16 16 15 15 15 14 14 14 13 13 13 13 13 13 13 13 13 13
16 16 17 19 19 19 20 20 20 18 18 18 19 19 19 20 20 19 18 19 19 20 19 18 18 18 18 18 16 16 16 17 19 19 18 18 18 18 18 18 17 17 16 16 15 15 15 15 15 14 14 14 14 15 15 15 16 16 16 16 16 15 15 15 16 16 15 15 15 15 14 14 14 14 14 13 13 13 13 13 13 13 13 13 13 13
16 17 18 18 19 19 20 20 20 20 19 18 18 19 19 20 21 19 17 16 17 20 19 16 17 18 18 18 17 17 17 18 18 18 18 18 18 18 17 17 17 16 16 16 15 15 14 14 14 14 14 14 14 14 14 15 15 16 16 16 15 15 15 15 15 15 14 15 14 14 13 13 13 13 13 13 13 13 13 13 12 13 13 13 13 13
16 17 18 18 18 19 20 20 21 21 20 18 18 19 19 19 20 20 19 18 18 20 18 15 17 18 18 19 18 17 18 18 18 18 18 18 18 17 16 16 16 15 15 15 14 14 14 14 14 14 14 14 14 14 14 15 15 15 15 15 15 15 15 14 14 14 14 14 14 13 13 13 13 13 13 13 13 13 13 13 12 12 13 13 13 13
17 18 18 19 19 19 19 20 20 19 20 20 20 20 20 20 19 19 19 19 19 19 17 16 18 18 18 19 18 18 18 18 18 18 18 18 17 16 15 15 15 15 15 14 14 14 14 14 14 14 14 14 14 14 14 15 15 15 15 15 14 14 14 14 14 14 14 13 13 13 13 13 13 13 13 13 13 13 13 12 12 12 13 13 13 13
17 18 18 18 19 20 20 19 19 18 19 19 20 20 20 20 20 19 19 19 20 18 17 17 17 17 18 19 19 18 18 18 18 18 18 18 17 16 15 15 15 15 14 14 14 14 13 14 14 14 14 14 14 15 15 15 15 15 14 14 14 14 14 14 13 13 13 13 13 13 13 13 13 13 12 12 12 12 12 12 12 12 12 13 13 13
17 18 18 18 18 19 19 19 19 18 19 19 19 19 19 20 20 20 19 18 19 18 17 17 17 17 18 19 19 19 18 18 18 18 18 17 16 16 15 15 14 14 14 14 14 13 13 13 13 13 14 14 14 14 15 15 14 14 14 14 14 13 13 13 13 13 13 13 12 12 13 12 12 12 12 12 12 12 11 11 12 12 12 12 13 12
18 18 18 18 18 18 19 20 20 19 19 20 19 19 19 20 20 20 19 17 18 18 17 18 19 20 18 16 18 19 18 18 18 18 17 16 16 15 15 14 14 14 14 13 13 13 13 13 13 13 13 13 14 14 14 14 13 14 14 13 13 13 13 13 13 12 12 12 12 12 12 12 11 11 11 11 11 11 11 11 12 12 12 12 12 11
18 18 18 18 19 19 20 20 20 20 21 20 20 20 20 20 20 21 20 19 18 17 16 17 20 20 17 15 17 19 18 18 17 17 16 15 15 15 14 14 14 14 14 13 13 13 13 13 13 13 13 13 13 13 13 13 13 13 13 13 13 13 12 12 12 12 12 11 11 11 11 11 11 11 10 10 11 10 11 11 11 12 12 11 11 11
18 18 18 18 19 19 19 19 19 20 20 20 20 20 19 20 21 21 20 20 19 18 18 19 20 20 17 15 17 18 17 17 17 16 16 15 14 14 14 14 13 13 13 13 13 13 13 13 13 13 13 13 13 12 12 13 13 13 13 12 12 12 12 11 11 11 11 10 10 10 10 10 10 10 10 10 10 10 10 11 11 11 10 10 10 10
18 18 18 18 19 19 19 19 19 19 20 20 20 19 20 20 20 20 19 19 20 19 19 21 21 19 17 15 16 17 16 16 16 15 15 14 14 14 13 13 13 13 13 13 13 13 13 13 13 13 13 12 12 12 12 12 12 12 12 12 12 11 11 11 10 10 10 10 10 10 10 9 9 10 9 9 9 9 10 10 10 10 9 9 10 10
18 18 18 18 18 18 18 19 19 18 19 20 20 19 20 20 21 21 20 20 20 18 18 21 20 18 16 16 16 16 16 16 15 15 15 14 14 14 13 13 13 13 13 13 13 13 13 13 13 12 12 12 11 11 11 11 11 12 11 11 11 11 10 10 10 10 9 9 9 9 9 9 9 9 9 9 9 9 9 9 9 9 9 9 9 9
18 18 18 19 19 18 19 19 18 18 19 20 20 19 20 20 21 21 20 21 20 18 18 20 19 17 16 16 16 16 15 15 15 14 14 14 14 14 13 13 13 13 13 13 13 13 13 13 13 12 11 11 11 11 11 11 11 11 11 10 10 10 10 10 9 9 9 8 8 8 8 8 8 8 8 9 9 9 9 9 9 9 9 8 9 8
19 18 18 19 18 17 17 16 16 17 20 21 20 20 20 19 20 21 21 20 19 18 20 19 16 17 18 16 16 16 15 15 15 14 14 14 14 14 13 13 13 13 13 13 13 13 13 13 12 11 11 11 10 11 11 11 11 11 10 10 10 10 10 9 9 9 8 8 8 7 7 7 8 8 8 8 9 9 9 9 9 8 8 8 8 9
20 18 17 18 18 16 16 15 16 17 18 18 19 20 20 20 20 22 21 20 19 21 22 19 16 18 18 16 16 16 15 15 15 14 14 14 13 13 13 13 13 13 13 13 13 13 13 12 11 10 10 10 10 10 10 10 10 10 10 10 10 10 9 9 9 8 8 7 7 7 7 7 8 8 8 8 9 9 9 9 8 8 8 8 8 9
20 19 17 18 19 17 16 15 15 16 17 16 16 17 18 19 20 21 20 17 18 21 21 18 16 17 17 16 16 16 15 15 14 14 14 13 13 13 13 13 13 13 13 13 13 13 13 12 11 10 10 10 10 10 10 10 10 10 10 10 9 9 9 9 8 8 7 7 7 7 7 7 8 8 8 9 9 9 9 8 8 8 8 8 9 9
19 18 17 19 20 18 17 15 15 16 17 17 15 13 16 18 18 19 18 16 18 19 16 15 15 15 16 16 16 15 15 14 14 13 13 13 13 13 13 13 13 13 13 13 13 13 12 11 10 10 10 10 10 10 10 10 10 10 10 9 9 9 9 9 8 7 7 7 7 7 7 7 8 8 8 8 8 8 8 8 8 8 8 8 8 8
19 18 17 19 19 18 17 16 15 16 17 17 16 14 16 18 17 17 16 16 18 18 14 15 17 16 16 16 15 14 14 14 13 13 13 13 13 13 13 13 13 13 13 13 13 12 11 11 11 11 10 10 10 9 10 10 10 10 9 9 9 9 9 8 7 7 7 7 7 7 7 7 7 7 7 8 8 8 8 8 8 8 8 8 8 8
19 18 17 18 18 17 16 15 16 17 18 18 17 14 13 14 15 15 15 14 16 17 16 19 21 17 15 15 15 14 14 14 14 13 13 13 13 13 13 13 13 13 13 13 13 12 11 11 11 11 10 10 10 10 10 10 10 9 9 9 9 9 8 8 7 7 7 7 7 6 6 6 7 7 7 7 7 7 8 8 8 8 7 7 7 8
17 18 17 17 18 17 15 16 16 18 19 17 14 12 12 13 14 16 16 14 14 15 15 17 17 15 14 15 15 14 14 14 14 14 14 13 13 13 13 13 13 13 13 13 13 12 11 11 11 10 10 10 10 10 10 10 9 9 9 9 9 9 8 7 7 7 7 7 6 6 6 6 6 6 6 6 7 7 8 8 7 7 7 7 7 8
17 18 17 16 18 17 15 16 17 18 17 15 12 11 12 12 12 14 14 13 13 14 13 13 14 14 15 15 15 14 14 14 14 14 13 13 14 13 13 13 13 13 12 12 12 11 11 10 10 10 9 9 10 9 9 9 9 9 9 9 9 8 8 7 7 7 7 7 6 6 6 6 6 6 6 6 7 7 7 7 7 7 7 7 7 7
17 18 17 15 15 16 15 15 16 16 15 13 12 12 12 12 13 15 16 15 14 13 14 13 14 14 14 15 14 14 14 14 14 13 14 14 14 14 13 13 13 12 12 11 11 10 10 10 10 10 9 9 9 9 9 9 9 9 8 8 8 8 7 7 7 7 7 7 7 7 6 6 6 6 6 6 7 7 7 7 7 6 6 7 7 7
17 18 18 15 14 15 15 15 15 16 15 15 15 13 13 13 14 16 19 18 14 13 13 13 14 14 14 14 13 13 13 13 13 13 13 13 13 13 12 12 12 11 11 11 11 10 10 10 10 9 9 9 9 9 9 9 9 9 8 8 7 7 7 7 7 7 7 7 7 7 6 6 6 6 6 7 7 7 7 7 6 6 6 7 7 6
17 18 19 17 14 13 15 15 15 16 16 17 17 14 13 14 13 15 18 18 15 13 13 14 14 13 13 13 13 13 13 13 13 13 13 12 12 12 11 10 10 10 10 10 10 10 10 10 10 9 9 9 9 9 9 9 9 9 8 7 7 7 7 7 7 7 7 7 6 6 6 7 7 7 7 7 7 6 6 6 6 6 6 7 6 6
16 16 18 17 14 13 16 17 16 16 18 18 16 14 13 13 13 15 18 19 17 13 13 14 13 13 13 13 13 14 14 14 14 13 12 11 11 11 10 10 10 10 10 10 10 9 9 9 9 9 9 9 8 8 9 9 9 8 7 6 7 7 7 6 6 7 7 6 6 6 6 7 7 7 7 7 6 6 6 6 6 6 6 7 6 6
16 16 17 17 15 14 16 16 15 17 17 15 14 13 12 12 14 16 18 20 17 13 13 14 13 13 13 13 13 14 15 15 15 13 11 10 10 10 10 10 10 10 10 10 9 9 9 9 9 9 9 9 8 8 8 9 8 8 6 6 7 7 6 6 7 7 7 6 6 6 6 6 7 7 7 6 6 6 6 6 6 6 6 6 6 6
16 15 15 15 15 15 16 16 16 16 16 14 13 13 12 12 15 17 18 18 15 13 13 14 13 13 13 13 14 15 14 14 13 12 10 10 10 9 9 10 10 10 10 9 9 9 9 9 9 9 8 8 8 8 8 9 8 7 6 6 7 6 6 7 7 7 7 7 6 6 6 6 6 7 6 6 6 6 6 6 6 6 6 6 6 6
16 15 14 14 15 14 15 16 16 16 16 14 13 12 12 14 17 17 16 13 12 12 14 13 13 14 13 13 14 13 11 11 11 10 10 10 10 9 9 9 9 9 9 9 9 9 8 8 8 8 8 8 8 8 8 8 7 6 6 6 6 6 6 7 7 7 7 7 6 6 6 6 6 6 6 6 6 6 6 6 6 6 6 6 6 6
15 16 15 14 13 13 14 15 16 17 16 13 13 13 13 15 17 15 13 11 11 13 13 13 13 14 13 13 12 10 10 10 10 10 10 9 9 9 9 9 9 9 9 8 8 8 8 8 7 7 7 7 7 8 8 8 7 6 6 6 6 6 7 7 7 7 7 7 6 6 6 6 6 6 6 6 6 7 6 6 6 6 6 6 6 6
14 15 16 15 13 14 17 16 15 15 13 11 13 15 14 14 13 12 12 13 12 13 13 13 13 13 13 12 10 10 10 10 10 10 9 9 9 9 9 9 9 9 9 8 8 8 8 8 7 7 7 7 7 7 8 7 7 6 6 6 5 6 7 7 7 7 7 6 6 6 6 6 6 6 6 6 6 6 6 6 6 6 6 6 6 6
13 12 14 14 13 13 15 14 12 11 9 9 10 12 12 12 11 11 12 13 12 13 13 13 12 12 11 10 10 10 10 10 9 10 9 9 9 9 9 9 9 9 9 8 8 8 8 7 7 7 7 7 7 7 7 7 7 7 6 5 6 6 6 6 7 7 6 6 6 6 6 6 6 6 6 6 6 6 6 6 6 6 6 6 6 6
11 9 11 13 12 11 11 11 9 9 10 9 9 9 10 10 10 10 12 13 13 13 13 12 11 11 10 10 10 10 10 9 9 9 9 9 9 9 9 9 9 9 8 8 8 8 7 7 7 7 6 6 7 7 7 7 7 7 6 5 6 6 6 7 7 6 6 6 6 6 6 6 6 6 6 6 6 6 6 6 6 6 6 6 6 6
11 10 11 12 13 13 13 11 9 9 10 9 9 10 9 10 10 10 12 13 13 12 12 11 10 10 10 10 10 10 9 9 9 9 9 9 9 8 8 8 9 9 8 8 8 8 7 7 6 6 6 6 6 7 6 6 6 6 6 6 6 6 7 7 6 6 5 5 5 5 6 6 5 6 6 6 6 6 6 6 6 6 6 6 6 6
11 11 12 11 12 13 13 10 8 9 9 8 9 10 10 10 10 10 10 11 11 11 11 10 10 10 10 10 10 10 9 9 9 9 9 8 8 8 8 8 8 8 8 8 8 8 7 7 6 6 6 6 6 6 6 6 6 5 6 6 6 6 7 6 6 6 5 5 5 5 5 6 5 5 6 6 6 6 6 6 6 6 6 6 6 6
10 11 11 11 11 11 10 9 9 10 11 10 9 9 9 9 9 10 10 10 10 10 10 10 10 10 10 10 10 10 9 9 9 9 9 8 8 8 8 8 8 8 8 8 8 8 7 7 6 6 6 6 6 6 6 6 5 5 6 6 6 7 7 6 6 5 5 5 5 5 5 5 5 5 5 5 6 6 6 6 6 6 6 6 6 6
10 11 11 11 12 12 11 10 10 12 13 11 10 9 8 8 9 9 10 10 10 10 10 10 10 10 10 10 10 10 10 9 9 9 9 8 8 8 8 8 8 8 8 8 8 8 7 7 7 7 6 6 6 7 6 6 5 6 6 6 7 7 7 6 5 5 5 5 5 5 5 5 5 5 5 6 6 6 5 6 6 6 6 6 6 6
10 11 11 12 13 13 12 11 10 12 12 10 9 8 8 8 9 10 10 10 10 10 10 10 10 9 9 9 9 10 9 9 9 9 8 8 8 8 8 8 8 8 8 8 8 7 7 7 7 6 6 6 6 7 6 6 6 6 6 7 7 8 7 7 6 5 5 5 5 5 5 5 5 5 5 5 5 5 5 5 5 6 6 6 6 6
Height
751 758 763 762 764 764 763 763 763 765 767 768 771 771 772 774 768 764 761 755 752 754 760 762 761 767 770 767 769 773 777 779 780 784 786 783 777 776 779 780 783 785 786 787 788 789 790 792 793 794 796 797 799 801 802 804 805 807 808 809 810 811 813 815 816 816 818 818 820 821 821 822 822 823 823 824 824 824 824 824 824 824 825 825 824 824
752 760 763 759 760 761 761 762 761 766 769 769 771 771 775 776 768 764 763 758 754 754 762 767 767 771 769 766 771 775 778 778 778 779 781 785 783 777 778 780 782 785 787 787 789 791 792 793 794 795 796 798 799 801 802 803 805 807 808 809 810 811 813 814 815 816 817 818 819 820 821 821 822 822 823 823 823 823 823 823 824 824 824 824 824 823
758 762 760 757 758 759 762 763 763 767 768 770 773 774 776 776 771 766 763 760 757 755 762 767 767 772 771 767 771 775 774 773 774 774 775 783 787 780 776 779 782 785 787 789 790 792 794 795 795 796 797 798 799 801 802 803 805 807 808 809 810 811 813 814 815 816 816 818 818 819 820 820 821 822 823 823 823 823 823 823 823 823 823 823 822 822
762 759 755 757 759 758 763 767 766 768 770 772 774 776 777 776 773 769 766 764 760 760 764 765 766 771 774 773 774 775 773 774 777 778 778 781 787 785 779 778 781 785 787 789 792 793 795 796 796 797 797 798 800 801 803 804 805 807 808 809 810 811 813 814 814 815 816 818 818 819 820 820 821 822 822 822 822 822 822 822 822 822 822 822 822 821
757 752 751 756 757 756 760 767 769 769 773 775 773 773 774 773 772 770 770 765 761 765 764 764 771 776 777 777 779 780 778 779 782 782 783 784 787 790 787 783 782 785 788 790 792 794 796 797 798 798 799 799 801 802 803 804 805 807 808 809 811 812 813 814 814 815 816 817 818 819 820 820 821 821 821 821 821 821 821 821 821 821 822 822 821 821
752 749 750 754 756 756 759 766 769 768 773 776 772 769 769 769 770 770 770 768 769 772 766 767 778 782 780 780 780 782 781 784 786 783 785 788 787 790 795 792 786 785 789 791 793 795 796 798 799 800 801 801 801 803 804 805 806 807 808 809 811 812 813 814 815 816 816 818 819 819 820 821 821 821 821 820 820 819 819 820 820 821 821 821 821 820
749 749 750 752 756 758 759 764 767 766 772 776 769 765 768 768 769 770 770 773 777 776 770 770 778 783 784 781 780 782 784 787 788 781 781 785 786 787 794 797 790 786 789 792 793 796 797 799 801 801 802 802 803 804 804 805 806 807 808 809 811 812 813 814 815 816 816 817 818 819 820 820 820 820 820 820 819 819 819 819 820 820 820 820 820 819
746 749 752 753 756 759 761 763 764 764 769 772 766 764 768 768 769 770 770 775 777 775 774 771 773 781 783 780 779 782 787 790 788 783 781 783 785 784 788 796 795 788 789 792 794 796 798 800 802 803 803 803 804 804 805 806 807 808 808 810 811 812 813 815 815 816 816 817 818 819 819 820 819 819 819 819 819 819 819 820 819 819 819 819 818 817
743 748 751 753 756 759 759 757 759 761 763 764 763 762 763 764 766 766 769 776 778 778 780 774 773 781 782 782 782 782 787 792 788 784 782 782 784 782 784 794 797 790 789 792 794 796 799 800 802 802 803 804 804 805 806 806 807 808 809 811 812 813 814 815 815 815 815 816 817 818 818 818 818 818 818 818 819 819 819 819 819 818 818 817 817 816
740 741 743 747 754 755 753 752 755 757 757 758 761 761 761 765 767 768 771 775 779 785 783 775 773 779 783 785 787 785 785 787 783 781 779 779 780 780 782 789 792 790 789 791 794 796 799 800 801 802 802 804 805 806 807 807 808 809 810 811 812 813 814 814 815 814 814 816 816 817 817 817 817 817 818 818 819 819 819 819 818 818 817 817 817 816
736 736 738 742 747 748 748 751 753 752 751 755 758 758 761 767 767 771 775 774 782 788 779 773 771 774 780 783 784 780 774 773 776 778 778 776 778 779 781 784 786 787 788 791 793 796 799 800 801 802 802 803 805 807 808 809 809 809 810 811 812 813 814 814 814 814 814 816 816 817 817 817 817 817 818 818 819 819 819 818 818 818 818 817 817 816
737 739 742 739 738 741 745 751 754 750 749 753 757 758 765 771 769 774 778 778 788 787 775 776 775 775 780 776 773 770 761 762 768 772 772 772 773 776 778 781 783 786 787 790 793 796 798 799 801 802 802 803 805 807 809 810 810 810 810 810 811 813 814 814 814 814 815 816 817 817 817 817 818 818 819 819 819 819 819 819 819 818 818 818 818 817
742 741 742 737 734 736 743 753 757 756 753 753 758 764 774 783 782 783 785 787 792 783 776 782 780 778 777 767 766 766 759 758 759 760 764 767 769 773 775 779 782 784 787 790 793 795 798 799 800 802 802 803 805 806 809 810 810 810 810 810 811 812 814 814 815 815 816 817 817 818 818 818 819 819 820 820 820 820 820 820 820 819 819 819 818 817
750 744 740 739 737 733 737 750 757 759 759 757 759 765 775 786 791 794 795 797 792 779 778 782 775 776 775 765 768 768 760 757 756 758 762 766 771 773 774 779 782 784 786 790 793 796 798 799 800 803 803 804 805 806 808 810 811 811 811 812 811 812 815 815 815 815 816 817 818 819 819 819 820 820 820 821 820 821 821 821 821 821 821 821 820 819
754 751 742 739 739 733 734 741 746 753 760 759 757 761 769 774 780 786 787 786 782 776 780 781 774 777 776 768 769 768 764 761 758 761 764 767 772 774 775 779 782 785 787 790 794 796 798 800 801 804 804 805 806 807 808 810 811 812 812 813 813 814 815 815 815 816 816 818 819 819 820 820 820 821 821 821 821 822 822 822 822 823 822 822 821 820
749 750 738 732 733 731 734 737 737 748 761 761 757 761 767 764 765 777 782 780 775 772 779 784 781 780 774 767 767 767 766 764 760 763 767 770 772 773 776 779 783 786 787 792 795 797 799 801 802 804 805 806 807 808 810 810 811 813 813 814 815 815 815 815 816 817 818 819 819 820 820 820 821 821 821 822 822 823 823 823 824 824 823 822 821 820
747 747 735 731 733 730 731 733 733 740 753 762 762 762 762 756 757 773 784 787 782 773 780 791 788 780 774 769 768 767 766 766 765 765 768 771 771 774 777 779 783 787 788 792 796 797 800 802 804 806 807 808 809 810 811 812 813 814 814 815 815 815 815 816 817 818 819 819 819 820 820 821 821 822 822 823 824 824 824 824 824 824 823 822 822 821
742 742 734 731 735 732 728 730 732 733 741 756 762 757 755 758 762 767 775 784 783 777 786 796 789 781 778 772 768 768 768 767 767 766 768 772 772 776 782 783 785 788 789 793 796 798 801 803 805 806 808 810 811 812 814 813 814 815 816 816 816 816 817 818 819 819 820 819 820 821 821 822 823 823 824 824 825 825 825 825 825 824 823 822 822 820
734 738 735 729 731 732 728 732 740 738 736 743 747 745 750 761 768 771 774 778 779 785 795 794 786 782 779 773 769 767 766 766 767 767 768 772 774 777 784 786 787 788 790 794 797 798 800 803 805 806 807 810 812 814 814 814 815 816 817 817 817 818 819 819 820 820 820 820 821 822 822 823 824 824 825 826 826 827 826 826 825 824 823 822 822 821
730 735 737 731 727 729 731 736 744 745 740 739 741 743 746 752 757 764 770 768 770 786 797 793 791 787 772 765 764 763 762 762 763 765 766 769 774 777 781 785 787 788 791 795 797 800 801 803 807 807 807 810 812 813 813 814 815 816 818 819 819 820 820 821 822 822 822 823 823 824 824 825 826 826 827 827 828 828 827 826 825 824 823 822 822 821
729 733 738 734 729 732 734 733 735 741 743 742 746 750 749 748 750 755 763 766 766 779 791 793 795 784 764 757 757 758 761 760 760 762 765 768 772 776 781 785 787 789 793 796 798 801 802 805 809 809 809 811 813 813 813 815 817 818 820 821 821 822 823 823 824 824 824 825 825 826 826 827 828 828 828 828 828 828 827 826 825 824 824 823 822 821
727 733 737 737 734 733 729 722 724 731 735 737 742 747 747 746 750 757 766 771 768 773 782 784 778 767 760 759 756 754 758 761 762 764 767 771 773 776 781 785 787 789 792 797 800 800 801 805 810 811 811 813 813 814 816 818 820 820 822 823 824 825 826 827 827 827 827 827 827 828 828 828 829 829 830 829 829 828 827 826 825 824 824 823 822 821
723 728 733 734 732 729 724 720 722 722 725 731 735 739 744 743 743 750 760 765 768 775 781 777 765 758 761 763 756 753 758 761 764 766 769 774 775 777 782 786 788 789 792 797 800 800 801 805 811 811 812 813 814 816 818 820 821 822 824 825 826 828 828 829 829 829 829 829 829 829 829 830 831 830 830 830 829 828 827 826 826 825 824 824 823 822
721 726 732 733 728 725 723 722 722 721 725 732 733 736 740 739 737 741 747 752 760 770 772 767 763 759 761 762 756 755 760 762 765 768 771 775 777 779 783 787 789 790 793 797 799 801 803 806 810 811 812 813 815 818 820 820 822 824 826 828 828 830 830 831 831 830 830 831 830 831 831 831 832 832 831 830 829 828 828 827 826 825 825 825 824 823
723 729 733 736 736 734 733 731 730 729 728 730 732 734 734 734 737 742 746 749 754 763 761 756 761 764 763 763 759 758 763 766 769 771 773 775 779 781 784 787 789 789 793 797 799 802 805 806 809 811 812 814 816 819 821 822 824 826 827 829 830 831 832 832 832 832 832 832 832 832 832 833 833 832 832 831 830 829 828 827 827 827 826 826 825 824
722 729 730 735 742 744 742 737 735 734 731 727 730 732 732 734 734 737 746 748 751 764 762 749 756 767 766 763 762 763 766 768 771 773 775 777 780 782 784 786 788 790 794 798 800 803 806 807 809 811 812 815 818 820 822 823 826 827 829 831 832 833 834 833 834 834 833 834 833 833 834 834 834 833 832 831 830 829 829 828 828 828 828 828 826 825
720 726 726 727 731 735 734 731 730 730 728 727 730 731 731 732 730 732 741 744 747 761 761 749 755 768 768 764 763 764 766 768 772 774 775 778 781 783 785 787 790 793 796 800 803 805 806 807 809 811 814 817 820 821 823 825 827 828 830 832 833 834 835 835 835 835 835 835 834 834 834 834 834 833 832 831 830 830 830 830 830 829 829 829 827 826
719 725 725 725 728 733 734 734 735 730 723 722 726 729 731 733 733 732 735 739 746 754 754 754 761 761 760 762 761 761 764 767 771 773 774 777 780 783 787 789 792 795 797 800 802 803 804 806 810 813 815 817 820 822 824 826 828 829 831 832 834 835 835 836 835 835 836 836 835 835 835 834 834 833 832 832 831 831 831 831 831 830 830 829 828 826
714 723 727 727 730 734 735 735 734 730 728 727 726 726 728 731 731 726 729 737 739 736 736 749 759 753 752 758 758 757 760 762 767 771 774 777 781 784 788 790 792 796 798 800 801 802 805 808 812 814 814 817 820 822 825 827 828 830 831 833 835 836 836 836 836 836 836 836 836 835 835 834 834 833 833 833 832 832 832 832 832 831 830 829 828 827
711 720 725 723 725 729 733 735 734 731 732 735 737 737 731 730 730 726 733 744 741 733 734 746 757 756 753 755 757 758 761 763 769 773 776 780 783 784 788 790 793 795 797 798 801 803 806 809 812 813 815 818 820 822 825 828 829 830 832 834 835 836 837 836 836 837 837 836 836 835 835 835 834 834 834 833 833 833 833 833 833 832 831 830 829 829
712 722 724 718 723 730 732 736 737 735 732 734 744 749 738 733 736 735 740 748 743 742 751 756 761 762 755 753 757 760 763 767 772 775 778 781 783 784 787 790 792 795 796 798 801 803 806 809 812 814 816 819 821 823 826 828 830 831 832 834 836 837 837 837 837 837 837 836 836 836 836 836 835 835 835 834 834 834 834 834 833 833 832 831 831 831
710 722 724 719 727 734 734 738 739 735 733 733 740 748 742 736 738 739 744 747 739 743 759 760 754 755 754 753 758 762 764 769 772 775 778 781 782 783 786 789 791 793 795 797 799 803 806 809 811 813 816 820 822 825 827 829 831 832 833 835 836 837 837 837 838 838 837 837 837 837 837 836 836 836 836 835 835 835 835 835 834 834 834 833 833 833
711 718 723 725 731 737 739 742 739 732 732 735 740 749 751 748 746 744 747 751 743 743 750 742 733 742 751 753 757 762 764 767 769 771 774 778 781 783 784 786 789 791 793 795 798 802 805 807 810 813 816 819 822 824 827 829 831 832 834 835 836 837 837 838 838 838 838 838 838 838 838 837 837 837 837 837 837 836 837 836 836 836 836 836 836 835
714 715 723 726 728 738 744 741 739 738 738 742 749 754 755 753 749 743 743 747 746 745 746 741 737 743 749 749 752 756 758 760 763 766 769 773 779 783 785 785 787 790 792 795 797 801 805 807 810 814 816 819 822 824 826 829 831 833 835 836 836 837 838 839 839 838 838 839 839 839 839 838 838 838 838 838 838 838 838 838 838 838 839 839 838 837
716 716 724 729 729 739 746 742 742 745 743 747 754 755 753 753 751 747 747 750 750 748 749 750 749 746 744 746 750 754 756 759 763 768 771 774 775 779 784 786 787 790 792 795 798 802 805 808 810 814 818 820 822 825 827 828 831 834 836 836 837 837 838 839 838 838 839 839 840 840 840 839 839 839 840 840 840 839 840 840 840 841 841 841 840 840
714 716 723 735 740 743 750 752 750 748 748 751 753 752 752 752 749 744 742 744 747 748 748 749 751 748 746 749 753 756 760 763 767 770 772 773 773 775 778 782 785 788 791 794 797 800 803 807 809 813 817 820 823 826 828 828 830 834 837 837 837 838 838 838 838 839 839 840 840 841 841 841 841 841 841 841 841 841 842 842 843 843 843 843 843 842
710 713 718 734 747 746 749 756 751 746 749 747 744 746 746 744 742 737 732 735 743 748 747 748 751 750 749 751 756 759 762 766 773 775 772 773 775 775 776 779 783 787 791 794 796 799 802 805 808 812 816 819 823 826 828 829 831 835 838 838 838 838 837 837 838 839 840 840 841 842 843 843 843 843 843 843 843 843 844 845 845 846 846 845 845 845
706 708 708 724 747 752 749 752 753 752 747 736 733 739 740 739 741 737 731 733 739 744 744 745 749 751 751 753 757 759 763 769 774 773 772 773 776 777 780 783 785 788 791 794 798 801 804 806 809 813 816 819 823 826 827 829 832 835 839 839 839 838 837 838 839 840 840 842 843 844 845 845 844 844 844 844 845 846 847 847 847 848 848 848 847 847
710 712 710 721 744 752 744 745 751 749 738 729 730 737 741 742 740 738 737 734 732 738 742 742 747 751 750 750 753 755 761 767 767 766 769 773 775 777 781 784 788 790 793 795 797 800 804 808 811 814 817 820 823 825 827 829 832 836 839 840 839 838 838 839 840 841 842 843 844 845 846 846 846 846 846 846 847 848 849 849 850 850 850 850 850 850
713 715 717 725 739 745 740 742 747 741 733 734 737 739 743 743 738 741 745 735 725 732 737 736 741 746 747 749 749 748 751 753 752 756 765 770 774 778 781 783 787 790 794 797 799 801 805 809 812 815 819 821 824 826 827 829 832 836 839 840 838 838 839 840 841 842 843 845 846 847 847 848 847 848 848 849 850 851 851 852 852 852 853 853 853 852
720 723 728 730 735 741 739 739 743 737 732 737 740 739 742 744 742 744 742 730 726 732 734 734 736 740 743 745 744 743 745 745 745 754 764 769 774 779 781 783 786 789 792 797 800 803 807 810 812 816 820 823 826 828 828 829 832 836 839 839 838 839 840 841 842 844 845 846 847 848 849 849 849 850 850 851 852 853 853 854 854 855 855 855 855 854
723 729 735 734 737 743 741 737 741 738 731 734 740 742 743 742 739 738 733 731 734 734 732 735 739 739 742 743 743 746 750 750 752 759 765 768 774 779 782 785 789 792 795 798 801 804 807 811 815 818 823 826 828 829 829 830 832 836 838 839 839 840 841 842 843 845 847 848 849 850 850 851 852 852 853 854 854 855 855 856 857 857 857 857 856 856
721 723 730 735 741 746 743 740 739 733 728 733 737 740 741 737 732 732 733 735 736 733 732 737 739 740 744 747 750 753 754 754 757 762 766 770 773 778 782 785 788 793 797 801 804 805 807 811 816 819 824 828 829 830 831 831 833 836 838 839 841 842 842 843 845 846 848 849 850 851 852 853 854 854 855 856 856 856 857 858 859 859 859 859 858 858
725 723 725 732 737 736 732 733 733 730 733 737 733 732 734 733 731 733 733 733 733 733 734 736 738 740 744 749 754 756 755 757 761 764 768 773 775 778 782 785 788 793 797 801 805 807 808 812 817 821 825 829 830 831 832 832 833 836 838 840 842 843 843 845 846 847 849 850 851 853 854 855 856 857 858 858 858 858 859 860 861 861 861 861 860 860
730 732 729 729 734 735 731 731 736 739 742 742 738 734 734 733 734 735 732 732 734 733 733 736 739 742 745 749 754 757 758 761 764 766 770 774 776 779 782 785 788 792 797 801 805 807 809 812 816 821 826 829 831 832 833 834 834 836 839 841 843 844 844 846 847 848 849 851 852 854 855 856 857 859 859 860 860 860 861 862 862 863 863 863 863 862
737 740 736 731 735 740 738 739 743 743 741 741 740 739 737 735 735 735 732 731 733 732 733 736 740 743 746 748 753 757 761 763 766 769 772 775 778 782 783 786 789 792 796 802 805 807 811 815 818 821 825 829 832 833 834 836 836 837 839 842 843 844 845 846 847 849 851 852 854 855 856 857 859 860 861 861 862 862 864 864 864 865 865 865 865 865
737 738 736 734 733 731 731 738 745 742 741 742 740 737 737 736 736 735 733 731 731 732 734 737 739 743 746 748 751 757 761 763 766 771 774 776 780 783 785 787 790 792 796 801 804 807 812 816 820 822 825 829 832 833 835 837 838 838 840 842 843 845 846 847 848 850 851 853 855 856 857 859 860 861 862 863 864 865 866 866 866 866 867 867 867 867
736 734 735 737 736 733 734 741 746 743 742 743 740 737 737 737 736 736 734 733 733 734 736 738 739 742 745 747 750 755 760 763 766 769 774 777 780 783 786 788 790 793 797 801 803 807 811 816 819 822 825 828 831 833 835 837 838 840 841 842 844 845 846 848 850 851 853 854 856 857 859 860 861 862 863 865 866 867 868 868 869 868 869 869 869 869
737 735 736 739 740 741 741 743 745 741 738 740 740 740 739 738 737 737 736 736 736 736 738 740 741 742 744 747 749 753 758 763 765 767 772 777 780 783 786 788 790 794 798 802 805 807 811 816 819 821 825 828 830 833 835 836 839 841 841 842 844 846 847 849 851 852 854 856 857 859 861 862 863 864 865 866 867 868 869 870 871 870 870 871 871 871
737 735 739 739 737 737 738 739 740 736 733 735 740 740 740 740 740 738 737 738 738 738 739 742 743 745 747 749 750 753 757 763 765 767 771 775 779 782 786 789 791 795 799 803 806 809 812 816 818 821 824 828 830 832 835 837 839 841 842 844 846 847 848 850 852 854 856 857 859 861 862 863 865 865 866 867 868 870 871 872 872 873 872 873 873 873
738 737 737 735 732 733 734 736 738 735 734 738 742 741 741 742 741 740 739 739 739 740 740 741 744 748 751 753 755 756 759 764 767 769 772 777 780 782 785 788 791 795 800 804 807 811 814 817 819 821 824 827 830 833 835 837 840 842 844 846 847 849 850 851 853 855 857 859 861 862 863 864 866 867 868 870 870 871 871 872 873 874 874 874 874 874
Wind_Speed
4 4 3 5 6 7 8 8 8 7 6 5 4 4 3 2 3 4 3 7 4 3 1 5 7 7 9 11 10 10 6 3 5 6 2 5 4 8 7 8 7 5 6 9 11 12 13 14 15 17 16 16 16 14 14 14 12 12 12 11 10 9 9 10 8 6 5 5 4 4 4 4 3 2 2 2 2 3 4 4 5 6 6 7 7 8
4 5 6 5 7 9 8 8 8 6 5 4 5 3 1 1 4 4 1 7 5 1 2 3 8 8 10 11 9 10 8 7 9 12 10 7 5 7 9 9 8 5 5 8 9 9 11 11 12 14 14 15 15 14 15 15 14 13 12 10 10 9 9 9 8 6 6 5 3 2 2 1 1 2 2 1 2 2 3 5 6 6 7 7 8 8
3 4 6 6 6 7 5 6 8 7 5 3 3 3 0 2 4 4 2 6 4 2 3 0 6 6 7 7 11 12 11 9 8 8 11 9 7 6 9 10 8 7 6 6 7 8 9 10 11 13 13 14 15 13 14 15 14 13 12 10 10 9 8 8 7 6 5 3 3 2 2 1 1 1 1 2 4 5 5 6 7 8 8 9 9 9
4 5 6 6 6 8 5 4 8 6 4 4 4 4 2 3 1 2 2 6 5 2 1 3 4 1 1 3 7 8 4 3 3 3 3 6 3 3 4 8 8 8 7 6 6 7 8 9 10 11 13 14 14 14 13 13 12 12 12 11 10 9 8 8 7 6 5 5 4 4 3 1 1 2 4 4 6 7 6 7 8 9 9 9 9 10
4 5 6 9 7 9 7 4 8 6 3 2 4 5 3 3 3 3 2 4 5 5 2 6 5 5 1 4 5 2 3 5 6 4 3 3 4 4 4 4 8 8 7 7 6 6 8 8 8 10 13 13 14 14 14 14 13 13 13 12 11 10 9 9 8 7 7 6 5 4 3 2 1 3 5 6 6 7 8 9 10 10 10 10 10 11
5 4 7 11 6 7 8 5 6 7 4 2 4 6 7 5 5 2 3 5 5 4 2 4 2 4 3 5 6 4 4 6 4 3 4 3 4 3 3 2 4 8 7 6 7 7 7 8 8 9 11 13 13 13 13 14 14 13 13 13 11 10 9 9 8 8 7 6 4 3 3 3 4 4 6 7 8 10 11 11 11 11 11 12 12 12
4 3 7 10 8 7 7 5 5 7 6 2 5 7 7 6 5 2 3 3 2 1 2 3 3 3 4 4 6 6 7 7 4 6 8 7 6 8 5 3 2 7 7 6 7 7 7 8 8 7 9 10 11 11 12 13 13 12 12 12 11 10 10 9 8 7 7 6 5 5 5 5 4 5 6 7 8 9 10 11 12 12 13 14 14 15
5 6 6 7 8 7 6 4 6 7 8 3 5 8 9 7 7 5 4 3 2 2 4 4 4 2 2 5 4 7 8 6 5 8 9 9 8 10 10 5 3 6 8 6 8 7 7 8 8 7 8 8 9 10 10 11 12 11 11 11 11 11 10 9 8 7 6 5 4 4 5 5 6 6 6 7 7 8 10 11 13 14 15 15 16 17
4 8 7 7 6 5 6 6 8 9 6 5 6 9 9 8 7 6 6 4 1 1 4 5 2 3 4 5 2 8 8 6 8 11 10 10 10 11 12 10 6 6 8 7 8 8 8 9 10 10 10 9 9 9 10 11 12 12 13 14 13 13 11 10 8 7 6 5 5 5 5 7 7 7 7 7 8 10 11 13 15 16 17 17 17 18
3 8 10 9 6 5 6 6 10 11 4 4 6 7 5 4 3 3 5 4 2 2 3 6 2 2 3 4 3 8 8 8 10 11 11 11 12 12 11 13 10 7 8 8 8 9 9 10 12 13 14 12 10 10 11 13 15 16 17 16 15 14 12 10 9 8 9 7 6 6 7 7 8 8 8 9 10 11 13 15 16 16 17 18 18 19
1 3 5 7 5 5 6 5 8 11 7 5 6 5 4 4 4 3 2 4 3 2 5 7 6 4 2 4 4 7 8 11 11 8 9 10 12 12 10 11 11 8 8 8 8 10 11 12 14 15 16 15 13 13 14 16 17 18 18 17 17 16 14 12 11 10 10 8 6 7 8 9 10 10 11 11 12 12 14 15 15 16 17 17 19 19
2 3 2 3 6 6 6 4 3 5 6 6 4 4 2 3 3 4 4 3 3 4 6 5 6 5 3 5 5 6 7 12 13 11 13 14 13 13 10 10 10 8 9 8 8 9 10 11 13 14 15 17 17 16 17 17 18 19 19 18 18 17 14 13 11 9 9 7 7 8 8 9 9 9 10 10 11 12 13 14 15 17 17 17 18 19
2 2 2 2 6 8 7 5 2 1 4 5 5 6 4 1 1 1 2 1 3 5 4 2 3 3 4 6 6 8 8 11 14 13 14 15 13 12 11 11 9 8 9 8 7 7 7 8 10 12 14 16 18 18 18 17 18 19 19 18 18 17 13 11 10 9 8 7 7 8 8 8 8 8 8 8 9 10 11 12 13 15 16 17 18 19
1 4 4 1 3 6 9 7 5 2 4 6 5 5 5 3 3 4 3 0 2 4 2 1 1 2 4 4 3 5 5 6 8 7 7 10 9 9 11 11 8 8 10 8 7 7 6 7 10 11 13 15 17 18 17 16 16 17 17 16 17 16 12 10 9 8 7 7 7 7 8 8 7 7 7 7 8 9 10 11 12 13 15 16 17 18
4 4 5 5 2 5 9 7 6 6 5 5 4 5 5 4 5 4 3 3 3 3 2 2 1 2 2 3 4 3 3 1 6 8 7 9 9 8 10 11 8 8 10 7 7 8 7 9 12 11 12 14 15 17 17 17 16 15 15 14 15 14 11 9 9 8 7 7 7 7 7 7 6 6 6 7 7 8 10 12 12 13 13 14 16 17
6 5 6 5 4 7 9 5 6 9 4 2 3 5 4 5 5 1 2 5 4 2 1 1 1 2 2 3 3 1 2 4 8 10 9 9 9 9 10 11 9 7 10 9 7 8 9 11 13 12 13 14 14 15 16 16 15 15 14 13 12 12 10 9 8 7 7 6 6 6 5 5 5 6 7 7 7 9 10 11 11 11 11 12 15 17
5 3 6 3 5 6 9 8 6 6 4 1 3 5 4 4 6 3 1 0 3 3 1 1 1 2 1 3 0 6 7 6 9 10 11 9 9 10 7 9 9 6 9 9 8 9 10 12 14 13 13 13 14 13 13 15 15 14 13 12 12 11 10 9 7 7 6 6 6 6 6 5 5 5 5 5 6 8 8 10 11 10 10 12 14 16
5 2 5 4 7 6 5 8 6 5 7 6 4 5 3 3 3 3 1 2 4 2 1 1 2 2 1 2 3 9 9 9 10 10 11 9 9 9 4 4 8 8 9 9 8 10 12 13 15 16 16 14 14 14 14 16 15 14 12 11 11 10 9 8 7 6 6 6 6 6 5 4 4 5 6 6 6 6 8 10 10 9 10 12 13 15
4 1 5 5 8 5 2 6 5 3 4 5 5 7 5 3 2 1 2 1 2 2 1 2 3 3 2 2 5 10 11 12 11 9 11 11 9 10 7 5 8 10 10 10 9 8 11 13 14 17 19 16 16 16 16 16 15 13 12 10 10 9 8 7 6 6 6 6 7 7 6 5 5 5 6 6 6 6 8 9 8 8 10 12 13 14
3 3 3 4 6 6 4 4 5 4 0 4 5 6 3 3 4 3 3 3 3 3 1 0 2 3 3 4 8 12 11 13 13 11 13 13 10 11 10 8 9 10 9 9 9 8 10 14 14 15 17 16 16 17 16 15 13 12 10 8 8 7 6 6 5 5 5 5 6 6 6 5 4 4 4 4 3 6 6 6 6 8 11 12 13 13
2 3 1 4 2 6 5 5 7 8 4 4 5 6 3 2 2 2 1 2 4 4 3 2 1 5 5 3 7 11 10 12 14 13 12 12 12 12 10 9 9 10 9 9 10 9 12 16 15 16 17 17 17 18 17 15 13 12 10 8 8 7 7 7 7 6 6 5 5 4 3 2 3 3 3 2 4 4 4 4 7 9 11 12 11 12
2 3 2 1 1 5 5 4 7 11 9 6 5 5 5 3 4 3 1 1 3 4 3 4 2 6 5 2 4 7 9 10 11 11 9 9 12 12 11 9 9 11 11 9 9 9 13 16 15 16 19 20 20 20 18 16 15 14 11 9 9 8 8 6 5 4 4 3 4 4 4 3 2 2 2 2 3 3 4 7 9 9 10 10 10 12
3 4 3 1 3 5 5 1 6 13 12 8 5 4 4 4 5 6 5 3 3 2 1 3 1 4 5 3 2 4 8 8 9 10 10 9 10 12 12 10 10 11 12 10 8 8 14 17 16 16 18 20 20 19 18 17 16 14 11 10 10 9 8 6 4 3 3 4 4 5 5 4 3 4 4 5 6 7 9 10 10 10 10 10 10 11
2 3 3 1 3 3 3 4 3 7 9 6 4 4 5 4 3 5 5 4 4 3 1 2 1 4 5 4 1 7 9 8 8 9 10 10 8 11 13 11 11 12 11 10 8 8 13 16 15 15 17 18 18 18 18 19 17 15 13 12 11 10 9 8 7 7 7 7 8 8 7 7 7 8 9 10 10 11 11 11 11 11 11 12 12 12
2 2 3 3 1 3 2 2 3 3 5 4 3 5 6 5 6 4 3 4 3 5 5 4 2 5 4 2 5 9 10 9 9 9 10 9 8 10 12 10 11 12 11 10 9 8 10 12 12 14 15 17 17 17 18 19 18 17 15 13 12 12 10 9 9 8 8 9 9 9 9 9 10 10 11 12 12 12 12 11 11 13 14 14 15 15
3 3 3 4 4 3 4 5 3 4 4 2 3 6 7 8 9 5 3 4 3 4 4 5 4 4 2 3 7 9 10 9 10 11 10 10 9 10 10 10 9 10 11 11 10 9 9 10 11 14 16 17 17 18 19 19 18 18 16 15 14 13 11 10 9 9 10 10 11 11 12 12 12 12 13 13 13 12 12 12 13 15 16 16 17 19
3 2 4 6 5 5 6 7 5 3 4 3 5 8 8 8 9 7 5 4 5 4 3 5 5 5 6 7 7 9 11 10 10 12 12 11 11 10 10 10 9 9 10 10 10 9 9 9 11 14 17 18 18 19 19 19 19 19 18 16 15 13 12 11 11 11 12 12 12 13 14 14 13 14 14 14 14 13 13 14 15 16 17 18 19 20
4 2 4 5 3 4 5 6 5 2 5 7 8 9 8 7 8 8 5 6 6 7 3 6 5 9 10 10 9 11 13 12 11 12 11 12 12 11 10 11 11 11 10 10 10 10 10 9 9 13 18 19 20 20 19 19 19 19 18 17 15 13 12 12 12 12 13 13 14 15 15 15 14 14 14 14 14 14 15 16 16 17 18 19 20 21
6 3 4 4 1 2 2 3 2 3 3 3 6 9 9 9 9 9 7 7 8 8 5 7 10 9 9 12 12 12 13 13 13 12 10 11 12 12 11 12 12 11 11 11 10 10 10 9 9 13 18 20 21 21 20 19 19 19 18 17 15 13 13 13 13 13 14 15 15 15 15 14 15 15 15 15 15 16 17 18 18 19 20 21 22 22
4 3 4 5 2 4 6 6 3 4 3 4 4 2 6 9 9 7 5 5 7 5 4 9 12 5 3 9 10 7 8 9 10 10 10 11 12 13 13 12 12 11 11 11 11 10 10 9 11 15 18 20 21 22 20 20 20 19 19 17 16 14 14 14 14 14 15 15 15 15 15 15 16 16 16 17 18 19 20 20 21 22 23 23 24 24
2 2 3 5 4 5 6 6 6 3 3 5 4 3 3 8 6 5 4 4 5 3 2 9 9 3 3 5 9 8 9 10 11 12 12 12 12 14 14 13 12 12 12 12 12 10 10 10 13 16 18 18 19 21 21 20 20 20 19 18 16 15 14 14 15 15 15 15 16 15 15 16 17 18 19 20 21 21 22 22 23 24 25 25 26 26
4 1 1 5 4 2 4 6 6 5 5 7 5 4 3 6 5 3 3 3 5 7 8 8 5 5 4 7 10 10 12 13 13 13 13 11 12 14 14 14 13 13 13 12 12 11 11 11 13 16 18 18 19 20 21 21 20 20 19 18 16 15 15 15 16 16 16 17 17 17 17 18 19 20 21 22 22 23 23 23 24 25 26 26 27 27
5 4 2 5 5 2 3 4 5 5 6 3 1 1 1 1 3 3 2 1 4 9 9 5 5 6 7 10 12 12 14 16 15 14 14 13 13 13 14 15 14 13 13 13 12 12 12 13 16 19 21 21 21 22 22 21 21 20 19 19 17 15 16 17 16 17 17 18 18 18 18 20 21 22 22 22 23 23 23 24 25 26 27 27 27 28
5 6 3 2 4 2 4 4 3 4 3 4 4 2 3 1 3 4 2 3 4 4 3 3 4 9 12 13 14 15 15 14 13 12 12 13 12 11 12 13 14 12 11 11 11 11 13 16 19 21 22 23 23 23 23 22 21 20 19 19 18 17 17 18 17 18 19 18 18 17 18 20 22 23 23 23 24 24 25 26 27 27 27 28 29 30
6 6 3 1 4 2 2 4 2 1 4 6 5 3 5 4 4 3 1 2 3 1 1 1 4 11 13 11 11 11 9 9 10 10 11 12 13 13 12 11 11 11 10 9 10 11 15 19 21 21 22 24 24 23 23 24 22 20 20 19 18 18 18 18 18 19 19 18 18 18 18 20 22 23 23 24 25 26 27 27 28 28 28 29 30 31
8 5 3 2 3 3 3 3 2 5 5 4 4 2 3 3 3 3 2 2 5 3 3 5 5 7 9 10 8 8 8 9 9 8 10 12 12 13 14 13 12 11 10 11 14 17 21 25 26 25 24 24 25 24 23 24 23 21 19 18 18 19 19 20 20 19 19 19 18 18 19 20 22 23 24 25 26 27 28 28 28 28 29 30 32 32
9 6 4 3 2 2 4 2 2 3 4 3 3 2 3 4 4 5 3 4 5 5 6 7 7 7 10 11 10 10 11 10 7 4 6 7 7 7 9 10 12 12 12 15 20 23 27 29 29 29 27 26 26 25 24 24 23 21 19 18 18 19 20 21 20 19 19 19 18 18 18 19 21 23 24 25 26 27 27 27 28 28 29 31 32 33
5 6 7 5 1 3 5 2 1 2 4 5 5 5 3 3 4 5 3 3 5 5 7 9 10 9 11 13 13 13 12 8 6 7 6 5 7 7 8 9 13 16 18 21 23 24 26 29 30 29 29 28 26 25 25 24 23 21 19 18 19 21 21 21 20 20 20 20 19 18 18 19 21 23 24 25 26 27 27 27 28 28 29 31 32 33
6 4 5 6 2 2 5 3 3 4 5 6 6 5 2 2 3 3 4 4 5 8 9 11 12 11 12 15 16 15 11 7 8 9 7 8 9 10 10 11 13 17 20 24 28 29 27 29 29 28 29 28 26 26 26 24 23 22 20 19 21 22 22 22 21 21 21 20 19 19 19 20 22 24 25 26 27 27 27 27 28 28 29 30 31 31
7 4 4 6 4 4 5 3 3 4 3 3 4 4 2 3 5 6 2 5 6 10 12 14 15 14 13 14 15 14 12 9 8 9 11 12 11 12 14 14 16 20 21 22 27 31 31 31 30 29 28 27 26 26 27 26 25 23 20 20 22 23 22 22 22 21 21 20 19 19 20 21 23 24 26 26 26 27 27 27 27 28 28 29 29 30
4 3 3 4 5 4 5 3 2 4 4 3 4 4 5 5 6 5 5 6 4 8 11 12 15 15 15 15 13 10 7 4 7 12 14 14 13 12 14 18 21 24 27 27 29 32 31 30 30 28 26 26 26 26 26 27 26 23 21 22 23 22 22 22 21 21 20 20 19 19 20 22 23 25 25 26 26 26 26 26 26 26 27 28 28 30
2 2 2 3 5 3 3 3 0 4 4 4 4 3 4 4 2 4 6 4 2 7 8 7 9 11 13 12 7 4 5 10 14 16 15 15 14 12 14 19 20 21 24 28 30 31 29 27 27 27 25 25 26 26 26 27 26 24 23 23 23 22 22 22 21 21 21 21 20 20 21 22 23 24 25 25 25 25 26 25 25 25 26 27 29 30
3 2 1 2 3 2 2 3 2 3 4 6 8 4 2 4 4 4 2 1 2 7 8 7 8 9 9 7 5 7 10 13 15 15 14 14 15 15 17 22 23 22 24 25 25 28 31 28 26 26 25 24 25 25 26 28 26 24 24 23 22 22 22 22 22 22 22 22 21 21 21 22 23 24 24 24 24 25 25 25 24 25 26 27 29 30
1 2 2 3 2 3 3 2 3 4 5 3 5 4 4 5 4 4 3 1 1 5 6 6 7 8 8 8 8 9 12 13 14 14 14 14 14 15 17 21 24 25 25 25 24 27 32 31 27 25 23 23 24 25 26 28 27 25 24 23 22 23 23 23 23 23 23 23 22 21 22 22 23 23 23 23 23 24 25 25 25 26 26 27 28 28
1 1 4 3 2 3 4 5 5 4 4 2 1 3 5 4 2 4 5 3 2 4 5 6 6 7 9 11 10 9 10 12 13 13 13 13 14 15 17 22 27 28 27 26 27 29 31 31 30 28 24 22 24 25 25 27 28 27 25 24 24 24 25 24 24 23 23 23 22 22 22 23 23 23 23 23 23 24 24 25 25 26 26 26 26 27
2 1 3 2 1 2 2 2 1 2 3 3 2 3 4 4 3 3 4 4 4 4 5 6 8 9 10 12 12 10 10 12 12 12 12 13 12 14 18 22 26 28 28 27 27 29 30 29 28 29 26 23 24 25 25 25 27 28 27 26 25 25 25 24 24 23 23 23 23 23 23 24 24 24 23 23 23 23 24 24 25 25 25 25 25 25
1 2 2 2 2 3 2 2 2 2 3 4 4 3 2 2 3 2 4 5 5 5 7 8 10 11 11 12 12 12 11 13 14 12 11 12 12 13 16 20 23 26 29 29 29 31 31 28 26 27 28 26 25 25 25 24 25 27 28 27 26 25 24 24 24 24 24 24 24 24 24 25 25 24 24 24 24 24 24 23 24 24 24 24 24 25
0 2 2 1 2 2 2 4 3 3 3 3 2 2 2 3 4 2 2 3 4 7 7 8 10 12 11 11 13 15 13 14 15 14 11 11 11 12 15 20 23 25 26 29 32 33 31 29 28 28 28 27 26 26 26 26 26 27 27 27 26 26 25 25 25 25 25 25 25 25 25 25 26 26 26 25 24 24 23 22 23 24 23 22 22 23
0 1 1 1 2 1 3 4 2 2 3 3 3 2 3 3 1 3 4 4 6 8 8 8 8 9 11 12 14 16 15 14 14 16 15 12 11 12 17 22 25 26 26 28 31 33 32 30 30 30 28 27 27 27 27 27 27 27 28 28 27 27 27 27 27 27 26 26 26 26 26 27 27 28 27 27 26 25 24 23 22 22 22 21 20 20
1 1 2 3 2 1 4 4 3 2 2 3 3 2 2 3 1 4 5 5 7 8 9 9 7 6 8 11 12 15 16 13 13 16 15 12 14 17 20 23 25 26 27 28 28 29 30 31 31 31 29 28 29 30 29 29 29 29 29 30 29 29 30 30 29 28 27 26 27 27 28 28 28 28 27 27 27 26 25 23 21 21 21 20 19 18
2 3 3 4 3 3 5 5 5 4 2 3 2 0 2 2 1 5 5 5 6 7 8 11 11 8 7 8 9 12 11 9 13 17 14 12 17 24 25 26 27 26 26 27 27 26 27 28 29 31 30 30 30 31 31 30 30 30 31 31 31 31 31 31 31 29 27 27 28 28 29 30 29 28 28 27 26 25 25 23 22 21 20 19 18 18
Wind_Direction
143 151 181 184 182 181 182 171 164 162 151 141 124 118 121 139 262 272 275 291 326 65 142 147 157 166 165 174 159 150 150 99 113 136 229 265 179 157 164 165 160 147 123 113 118 123 128 136 145 156 163 165 164 164 170 173 173 174 176 177 176 181 191 196 200 200 201 213 226 243 262 269 272 292 314 336 342 339 341 342 343 345 344 340 340 338
137 175 202 193 181 174 172 170 152 132 124 109 119 124 64 157 256 271 269 303 322 53 311 106 134 175 178 171 152 143 152 163 176 173 178 234 239 171 164 168 153 128 111 108 110 115 122 130 141 152 157 158 157 157 166 170 169 173 175 171 166 168 181 188 193 195 199 209 219 238 259 277 282 284 299 329 360 7 16 12 8 10 9 5 6 3
167 208 207 192 170 144 137 156 143 137 143 114 113 125 205 243 268 288 319 323 334 82 297 93 131 191 200 161 152 163 179 182 188 182 169 187 225 202 170 163 145 126 119 109 106 109 115 122 134 146 150 153 155 155 164 170 169 172 173 171 170 168 176 181 183 185 184 187 192 203 218 269 289 309 357 31 48 44 35 30 28 25 20 16 13 12
178 234 207 170 137 127 118 132 131 136 147 126 128 139 211 258 249 267 313 325 333 54 166 142 106 274 304 111 150 171 188 126 73 34 124 155 193 245 177 144 137 135 128 117 113 113 117 120 125 138 146 151 155 152 158 166 167 169 170 170 168 164 166 167 162 161 164 171 178 186 200 209 187 59 48 52 56 46 37 34 30 24 19 17 15 11
195 237 174 139 136 147 145 143 137 139 169 182 173 163 185 227 197 209 286 325 346 10 87 102 49 337 344 158 164 104 59 78 66 47 48 69 68 358 343 102 129 132 127 122 120 122 123 119 116 130 145 152 154 152 157 164 165 167 167 163 160 157 157 157 157 159 164 168 169 180 183 157 82 46 37 33 29 20 19 19 19 17 12 12 11 5
223 239 145 138 152 158 152 164 163 153 164 221 222 194 176 175 196 244 359 18 30 2 328 91 70 301 303 204 185 138 128 116 94 135 144 108 111 118 341 336 128 120 119 121 122 131 126 117 116 126 144 152 152 154 159 163 163 162 159 155 155 157 158 159 160 157 154 148 133 131 125 85 45 37 31 19 10 7 10 10 7 7 5 4 1 356
208 179 142 151 157 160 163 180 193 160 140 209 233 190 163 150 167 172 49 53 81 234 287 74 147 251 310 246 194 156 151 135 143 193 181 168 169 165 167 255 191 125 125 128 127 131 120 116 118 120 136 145 147 153 158 159 159 156 152 150 150 151 151 150 148 141 132 123 103 87 85 76 55 48 35 18 13 10 8 3 354 355 358 357 353 350
179 153 144 151 148 160 175 185 197 156 131 222 226 159 152 157 171 177 140 150 201 245 322 11 122 147 289 251 190 147 150 144 171 210 201 175 178 183 168 173 205 144 136 139 135 129 116 119 123 120 126 133 140 148 152 151 148 148 146 142 140 137 135 134 135 130 117 106 96 90 90 81 65 51 37 23 14 6 2 356 348 347 347 347 347 345
170 162 163 153 156 177 182 178 174 151 142 231 202 147 158 173 180 181 161 178 209 56 319 308 128 135 269 273 143 144 161 170 189 208 209 182 181 193 165 151 179 164 140 142 140 129 124 129 133 132 129 126 130 135 138 137 132 132 133 132 132 128 126 128 128 121 108 97 94 94 84 68 56 40 27 14 360 355 353 348 343 340 339 340 340 339
172 179 172 155 170 189 172 164 159 155 174 219 162 123 110 109 110 138 147 153 94 90 247 253 197 150 270 279 137 151 181 194 199 206 207 191 187 192 166 154 169 158 142 147 138 131 137 142 143 140 131 124 123 122 126 130 128 128 129 129 124 118 119 119 116 110 100 93 87 76 60 45 32 15 3 352 347 347 345 342 341 340 339 338 336 335
264 160 164 156 170 171 155 156 165 167 161 146 139 110 69 47 51 66 85 99 103 254 247 227 202 170 263 274 172 173 196 194 194 198 195 192 186 182 166 156 160 150 146 150 136 137 144 144 143 139 131 127 127 127 127 129 131 130 128 126 119 114 114 111 107 102 93 85 69 54 38 23 11 1 355 350 350 350 347 344 342 340 340 338 337 339
304 98 147 181 160 138 129 140 169 173 146 117 114 119 107 329 12 33 4 60 136 251 259 231 199 160 203 256 213 200 194 183 190 191 185 186 178 170 161 151 153 149 145 142 134 140 142 139 141 141 134 131 133 133 130 129 130 128 127 126 119 112 109 105 101 97 88 75 56 40 21 10 3 358 357 357 1 358 351 345 341 341 343 344 346 349
251 178 270 244 165 147 131 136 131 130 146 125 100 113 133 281 353 282 268 188 205 242 253 225 167 159 224 246 227 210 195 186 193 192 186 183 171 162 157 149 151 148 139 135 131 137 144 144 144 143 137 134 133 133 131 128 125 123 123 123 117 108 104 103 98 91 80 59 40 23 8 4 3 1 360 1 7 3 354 351 351 354 357 357 356 357
249 285 286 258 191 165 148 155 166 169 171 159 141 133 144 145 157 219 236 328 257 243 277 343 159 226 262 273 255 224 225 206 180 166 165 167 159 153 149 143 147 145 135 129 130 138 151 148 142 142 139 135 132 131 131 128 123 119 117 115 111 105 104 102 91 79 62 41 25 12 2 0 1 1 4 7 8 3 0 4 8 9 10 9 4 360
173 243 231 188 217 182 165 169 157 140 145 164 149 129 145 159 158 204 211 177 218 231 317 336 189 195 222 281 301 272 273 233 124 111 117 141 146 143 142 138 141 142 132 127 133 136 139 135 134 136 136 134 133 131 131 127 123 118 112 108 106 103 101 92 79 65 50 38 27 12 4 10 17 21 26 25 18 17 17 15 13 13 16 17 12 5
169 226 246 202 188 169 167 166 124 118 125 190 133 123 175 187 143 121 189 172 176 173 348 318 226 212 209 283 312 134 154 136 122 114 119 137 143 143 146 142 140 143 135 134 137 130 125 125 126 129 129 129 130 130 128 127 125 122 116 110 105 102 94 81 69 58 52 45 29 18 24 41 43 41 38 34 33 33 33 29 20 15 20 18 10 6
152 243 273 203 182 183 169 167 159 147 151 160 150 166 195 160 119 105 233 76 87 134 218 317 253 255 290 310 181 132 132 133 132 130 135 148 149 144 145 137 134 136 129 131 136 129 124 124 122 118 116 119 124 124 123 123 124 123 120 116 110 101 89 78 68 65 65 50 38 45 53 44 27 31 37 37 40 31 25 29 18 6 16 18 7 6
147 218 263 178 184 227 178 153 165 162 143 135 183 196 156 100 96 105 188 358 52 143 259 334 211 203 174 289 172 148 146 149 150 143 141 152 147 134 120 113 130 129 117 115 122 127 128 129 127 121 116 116 120 122 122 122 120 116 112 108 103 94 86 81 75 75 67 48 53 68 64 44 42 65 63 45 35 16 5 11 2 353 16 23 12 10
135 150 267 197 177 201 114 125 154 187 148 129 175 185 147 152 202 117 152 191 115 160 284 320 263 229 193 228 186 169 166 159 156 147 146 157 149 131 133 144 134 127 120 117 119 124 124 127 131 127 123 122 124 126 124 120 114 107 101 94 91 89 88 86 77 73 64 61 80 87 84 81 75 62 37 14 10 9 5 4 360 9 28 26 16 14
123 111 271 250 183 157 123 145 180 203 213 77 136 176 155 147 171 158 161 166 144 155 180 283 293 266 229 218 195 185 176 161 159 158 156 160 151 136 142 150 136 124 127 129 128 125 121 123 128 127 125 128 132 131 125 118 111 104 100 94 92 93 92 88 84 83 82 87 95 89 75 61 42 23 2 347 5 14 8 8 22 35 35 26 18 16
85 115 221 288 213 152 167 207 186 169 158 126 150 183 181 97 121 151 146 101 125 145 161 141 221 258 248 216 193 190 179 167 164 160 157 152 143 137 137 139 134 126 126 127 130 132 125 124 130 132 132 135 135 130 125 121 119 116 114 110 107 106 102 98 95 95 98 101 96 90 76 43 22 17 14 41 49 23 7 35 49 49 39 28 23 25
96 141 177 266 190 174 207 218 161 158 164 161 168 182 175 140 117 141 220 295 107 123 163 155 186 257 259 263 214 188 168 169 164 151 144 138 136 134 129 134 137 129 125 126 134 136 125 125 133 136 136 137 134 128 125 125 124 121 120 118 119 118 113 108 100 90 95 97 87 85 83 64 37 19 21 71 79 64 64 65 60 52 41 33 33 38
151 128 124 204 217 207 230 264 148 166 167 160 174 176 154 145 138 152 197 217 112 93 151 129 119 265 267 286 250 155 140 155 157 146 140 135 133 129 126 133 135 126 125 127 129 127 122 127 135 133 132 132 128 124 125 127 126 124 124 128 131 128 124 128 137 130 128 125 104 94 87 75 80 97 102 104 100 89 78 71 63 54 46 44 46 49
157 118 112 243 279 297 314 356 77 156 156 155 187 173 156 171 155 154 177 167 138 153 150 87 36 269 282 310 88 115 119 135 142 143 140 136 134 131 129 137 136 126 124 125 123 121 121 125 130 129 128 125 122 124 128 128 129 130 133 136 135 131 127 127 127 123 118 113 105 100 101 103 108 112 106 96 89 85 80 75 69 61 57 56 55 55
194 165 100 102 43 1 3 36 65 141 171 178 187 178 176 156 109 112 137 109 143 190 156 130 214 260 284 348 100 114 121 130 136 140 137 132 133 134 133 138 135 127 125 127 127 125 123 126 132 131 125 121 122 125 127 129 133 136 135 136 134 130 125 122 122 120 115 112 109 107 109 111 110 107 101 93 87 83 80 75 71 68 66 65 61 58
179 181 116 120 147 156 174 189 186 175 184 194 159 170 178 153 136 146 132 114 180 204 145 148 200 242 244 129 125 130 133 137 143 143 139 134 134 137 136 135 132 128 129 133 134 135 137 137 134 125 118 119 124 127 128 130 132 132 132 132 131 129 125 123 124 120 116 115 114 112 111 109 106 102 97 93 88 82 78 75 75 75 72 68 65 61
119 165 155 145 161 177 189 217 234 168 153 172 170 170 176 168 154 136 118 156 181 157 166 215 183 154 169 164 150 148 145 143 149 149 146 143 142 143 140 136 133 131 133 138 143 146 143 133 125 119 119 122 125 127 130 131 130 130 131 129 128 127 126 124 121 116 113 113 112 111 109 105 102 99 95 92 87 82 80 80 80 81 76 70 67 64
101 185 189 140 160 209 200 229 257 203 171 177 169 169 173 167 148 129 144 188 158 128 208 248 175 157 182 184 169 161 156 154 157 157 153 148 145 144 139 136 135 135 141 149 149 146 137 127 125 127 126 126 127 128 129 129 130 131 130 129 129 130 128 125 122 116 112 110 109 106 104 102 101 98 94 91 88 85 84 82 80 80 78 73 71 68
118 187 207 123 91 297 346 307 275 137 146 140 147 168 169 165 169 164 174 184 153 147 210 210 178 180 191 183 178 171 160 157 156 152 146 141 141 140 139 139 139 142 149 150 144 141 137 134 137 135 130 128 129 129 130 130 132 132 130 130 132 131 129 126 120 114 109 106 103 101 101 102 101 98 95 93 91 88 86 83 81 81 79 77 75 73
124 185 191 129 80 9 9 352 16 109 114 66 61 178 168 165 175 165 159 166 146 151 196 170 169 196 210 175 170 152 133 134 135 135 137 142 145 143 144 145 144 148 152 148 146 147 143 139 139 134 130 130 131 131 133 133 133 132 131 130 130 127 126 123 115 108 105 101 98 100 103 103 100 98 97 95 93 90 88 85 83 82 79 78 76 74
123 187 181 116 73 1 3 11 21 51 113 101 55 4 122 136 133 116 129 140 110 82 101 137 149 226 266 156 138 125 125 129 136 144 146 150 152 149 148 149 151 155 155 153 153 150 140 136 135 132 129 131 133 134 136 135 134 133 131 129 127 125 125 121 112 106 103 101 101 105 105 103 102 100 98 96 94 92 90 88 85 83 80 78 75 74
122 134 79 96 97 314 353 23 3 7 67 88 62 29 104 130 127 130 149 155 141 130 114 114 146 222 212 149 134 136 141 142 149 154 152 154 158 155 153 154 158 160 159 158 155 144 137 138 136 134 132 131 134 136 137 138 136 134 132 129 129 130 127 119 110 105 101 98 100 104 104 104 103 100 98 96 95 93 91 89 87 83 81 78 75 73
134 131 125 114 133 242 333 12 343 10 62 75 11 41 165 149 118 124 117 187 175 145 133 149 200 190 158 147 146 150 155 160 164 163 159 159 161 160 158 158 161 165 161 159 152 142 141 144 140 138 137 137 140 142 142 143 139 135 135 134 134 134 126 117 111 107 102 98 97 98 99 102 102 99 98 96 96 95 93 90 87 83 81 78 76 75
136 129 135 129 136 204 301 331 350 40 105 223 251 199 197 204 134 137 160 214 195 148 143 232 197 150 149 158 164 165 167 166 163 160 157 155 155 160 164 164 164 163 158 149 142 139 141 140 136 137 139 141 144 144 144 144 140 137 137 136 136 135 126 118 113 108 104 102 100 100 101 103 102 100 98 97 97 95 92 89 86 84 82 81 79 77
136 127 126 82 109 132 337 1 18 236 225 246 281 252 215 205 169 142 95 205 189 136 59 163 159 156 153 154 159 156 151 142 137 141 150 154 158 160 164 169 163 154 148 137 132 135 137 135 132 133 137 140 142 143 142 141 139 138 138 137 137 135 127 120 114 109 107 106 105 106 107 105 104 102 100 99 97 95 92 90 87 85 83 81 79 77
138 135 122 77 83 116 76 65 195 243 261 289 312 276 185 170 164 114 73 219 206 188 152 136 151 159 135 123 129 127 120 118 120 139 160 168 172 167 164 168 163 153 149 143 140 141 140 139 138 138 139 139 141 143 141 139 140 139 137 138 138 134 127 121 116 111 110 110 109 111 111 108 107 104 102 100 98 95 92 90 88 86 84 84 82 79
141 137 113 74 52 119 120 146 252 300 314 303 284 242 175 170 179 144 128 246 224 185 154 141 146 149 130 122 123 121 117 112 116 166 186 174 167 155 149 154 150 144 143 141 141 142 142 142 140 140 141 140 141 143 142 140 141 140 137 138 136 132 127 122 117 115 115 114 114 115 114 112 110 107 104 103 99 96 94 92 91 88 87 86 84 80
130 145 146 139 91 88 105 112 304 319 280 250 235 243 224 176 177 148 113 292 248 190 165 152 150 150 137 130 129 127 121 120 154 197 194 151 129 115 107 117 129 135 136 133 131 132 135 137 138 141 142 141 141 144 144 143 142 141 139 138 135 130 126 121 118 118 118 116 116 117 117 116 113 109 107 104 101 99 98 96 93 91 89 88 85 82
69 90 124 124 115 116 125 148 187 201 242 242 228 246 258 135 149 118 65 314 243 186 167 158 155 159 154 145 142 140 139 158 193 195 167 139 131 125 121 120 124 129 133 134 134 133 133 136 137 139 141 141 143 147 147 146 144 142 141 139 133 128 123 121 121 121 120 117 117 118 118 117 115 112 109 106 104 103 101 98 96 94 92 90 87 85
60 47 76 114 140 157 144 158 212 216 242 248 223 229 202 120 92 88 90 275 238 180 171 168 163 165 163 155 153 157 167 188 198 173 146 135 130 130 134 135 133 131 129 130 133 133 135 137 138 139 142 145 148 149 148 147 145 142 141 138 132 127 124 124 125 124 123 121 118 119 119 118 116 114 112 110 107 105 104 101 100 98 95 93 90 87
48 40 70 126 142 148 143 145 249 249 237 231 219 194 157 109 67 97 186 246 238 173 175 175 167 165 165 165 168 174 176 153 123 128 131 128 124 126 131 132 134 135 134 135 136 135 136 138 139 140 144 148 150 150 149 148 144 141 140 136 130 128 128 129 129 129 127 125 122 120 119 119 118 116 113 112 111 109 106 104 102 100 98 95 92 88
101 67 65 122 127 134 146 129 358 270 237 181 160 156 142 129 131 198 213 244 209 169 168 169 168 168 168 168 163 142 121 109 112 124 131 128 126 126 124 122 121 123 129 134 137 136 134 133 135 139 144 150 152 151 151 148 142 138 137 133 129 131 132 133 133 133 132 129 125 122 121 120 119 118 116 115 114 111 107 105 103 102 100 97 94 91
165 145 136 158 142 110 64 81 113 239 220 153 131 125 171 180 199 218 231 316 208 172 157 154 163 167 166 155 120 115 123 121 122 128 128 126 128 130 131 131 128 127 130 133 136 138 135 131 134 139 145 151 152 150 151 147 140 136 135 132 132 135 137 137 137 136 134 131 127 124 124 123 122 120 119 118 116 112 108 107 106 104 103 100 97 94
185 141 167 206 186 127 118 169 195 222 233 179 133 154 205 211 207 186 153 78 143 155 149 151 156 155 149 136 125 131 131 128 131 133 129 130 133 132 133 134 132 132 135 137 139 140 136 134 136 138 143 150 150 150 153 149 140 136 135 135 138 142 141 140 140 138 134 132 130 127 127 126 125 123 121 119 117 114 111 110 110 107 105 102 99 95
273 188 171 185 187 160 176 213 230 248 267 273 180 207 234 261 257 182 162 146 156 160 154 148 143 139 134 131 132 135 133 132 135 133 131 133 136 136 138 138 137 138 139 140 142 141 138 138 140 140 142 147 149 150 153 151 145 142 141 142 146 147 144 142 141 138 134 133 133 131 131 130 127 124 122 120 118 116 114 113 112 109 106 102 99 95
276 197 145 121 180 214 212 228 259 297 308 307 292 247 247 278 277 211 171 162 166 158 145 141 139 137 136 136 135 136 138 137 133 131 134 135 135 138 140 140 139 140 140 141 141 140 139 140 140 140 140 144 149 151 153 154 152 148 147 149 151 149 147 145 141 137 135 135 135 135 134 132 128 125 123 121 119 116 115 114 112 109 106 103 100 97
283 135 95 70 144 193 246 317 323 294 287 300 309 303 300 322 313 254 185 176 163 140 137 140 139 138 141 142 140 140 143 141 135 135 138 137 137 142 141 139 140 141 142 144 143 141 141 142 141 141 142 145 150 153 153 154 152 149 149 152 152 150 149 147 142 138 136 136 136 137 136 133 129 126 123 120 119 117 115 114 113 110 107 105 103 101
198 103 69 47 113 164 255 287 295 279 273 296 322 305 298 331 348 15 122 144 130 124 131 139 141 143 147 149 145 143 146 148 144 142 142 140 141 144 143 142 143 142 143 146 145 144 145 147 146 146 146 147 150 152 152 150 148 148 149 150 151 151 149 144 141 138 136 136 137 137 136 134 130 126 122 119 117 116 115 114 113 111 109 107 104 101
76 81 155 114 78 40 274 272 285 293 302 331 346 322 296 298 334 73 88 109 119 121 127 132 140 148 152 153 150 145 146 153 151 144 143 144 144 146 147 145 143 142 144 147 148 148 149 149 149 148 147 148 149 150 148 146 146 148 149 148 149 150 145 140 138 136 135 137 137 136 135 134 131 127 122 119 117 115 113 112 111 110 109 107 104 100
46 147 164 120 88 297 249 222 190 167 210 262 278 294 300 284 185 110 106 117 127 134 136 127 115 118 136 146 152 149 149 155 155 146 144 147 148 147 147 144 141 142 146 148 149 150 150 150 149 148 146 147 149 148 147 146 146 147 147 146 147 146 141 137 135 134 134 136 137 136 136 134 130 127 123 121 119 116 113 112 109 106 105 104 103 100
178 185 173 145 158 237 238 202 168 144 172 228 230 52 340 308 138 126 130 135 136 144 147 136 126 120 116 118 128 132 132 141 149 146 141 144 148 148 147 145 143 143 146 148 148 147 148 148 148 147 146 148 149 149 147 146 147 147 146 146 146 144 140 138 135 133 133 135 136 137 137 134 131 128 125 123 121 119 116 113 110 106 104 103 103 102